SCP
0 0 0 0 0 0 0 0 0 0 0 0 0 0 0 0 0 0 0 0 0 0 0 0 0 0 0 0 0 0 0 0 0 0 0 0 0 0 0 0 0 0 0
0 0 0 0 0 0 0 0 0 0 0 0 0 0 0 0 0 0 0 0 0 0 0 0 0 0 0 0 0 0 0 0 0 0 0 0 0 0 0 0 0 0 0
0 0 0 0 0 0 0 0 0 0 0 0 0 0 0 0 0 0 0 0 0 0 0 0 0 0 0 0 0 0 0 0 0 0 0 0 0 0 0 0 0 0 0
0 0 0 0 0 0 0 0 0 0 0 0 0 0 0 0 0 0 0 0 0 0 0 0 0 0 0 0 0 0 0 0 0 0 0 0 0 0 0 0 0 0 0
0 0 0 0 0 0 0 0 0 0 0 0 0 0 0 0 0 0 0 0 0 0 0 0 0 0 0 0 0 0 0 0 0 0 0 0 0 0 0 0 0 0 0
0 0 0 0 0 0 0 0 0 0 0 0 0 0 0 0 0 0 0 0 0 0 0 0 0 0 0 0 0 0 0 0 0 0 0 0 0 0 0 0 0 0 0
0 0 0 0 0 0 0 0 0 0 0 0 0 0 0 0 0 0 0 0 0 0 0 0 0 0 0 0 0 0 0 0 0 0 0 0 0 0 0 0 0 0 0
0 0 0 0 0 0 0 0 0 0 0 0 0 0 0 0 0 0 0 0 0 0 0 0 0 0 0 0 0 0 0 0 0 0 0 0 0 0 0 0 0 0 0
0 0 0 0 0 0 0 0 0 0 0 0 0 0 0 0 0 0 0 0 0 0 0 0 0 0 0 0 0 0 0 0 0 0 0 0 0 0 0 0 0 0 0
0 0 0 0 0 0 0 0 0 0 0 0 0 0 0 0 0 0 0 0 0 0 0 0 0 0 0 0 0 0 0 0 0 0 0 0 0 0 0 0 0 0 0
0 0 0 0 0 0 0 0 0 0 0 0 0 0 0 0 0 0 0 0 0 0 0 0 0 0 0 0 0 0 0 0 0 0 0 0 0 0 0 0 0 0 0
0 0 0 0 0 0 0 0 0 0 0 0 0 0 0 0 0 0 0 0 0 0 0 0 0 0 0 0 0 0 0 0 0 0 0 0 0 0 0 0 0 0 0
0 0 0 0 0 0 0 0 0 0 0 0 0 0 0 0 0 0 0 0 0 0 0 0 0 0 0 0 0 0 0 0 0 0 0 0 0 0 0 0 0 0 0
0 0 0 0 0 0 0 0 0 0 0 0 0 0 0 0 0 0 0 0 0 0 0 0 0 0 0 0 0 0 0 0 0 0 0 0 0 0 0 0 0 0 0
0 0 0 0 0 0 0 0 0 0 0 0 0 0 0 0 0 0 0 0 0 0 0 0 0 0 0 0 0 0 0 0 0 0 0 0 0 0 0 0 0 0 0
0 0 0 0 0 0 0 0 0 0 0 0 0 0 0 0 0 0 0 0 0 0 0 0 0 0 0 0 0 0 0 0 0 0 0 0 0 0 0 0 0 0 0
0 0 0 0 0 0 0 0 0 0 0 0 0 0 0 0 0 0 0 0 0 0 0 0 0 0 0 0 0 0 0 0 0 0 0 0 0 0 0 0 0 0 0
0 0 0 0 0 0 0 0 0 0 0 0 0 0 0 0 0 0 0 0 0 0 0 0 0 0 0 0 0 0 0 0 0 0 0 0 0 0 0 0 0 0 0
0 0 0 0 0 0 0 0 0 0 0 0 0 0 0 0 0 0 0 0 0 0 0 0 0 0 0 0 0 0 0 0 0 0 0 0 0 0 0 0 0 0 0
0 0 0 0 0 0 0 0 0 0 0 0 0 0 0 0 0 0 0 0 0 0 0 0 0 0 0 0 0 0 0 0 0 0 0 0 0 0 0 0 0 0 0
0 0 0 0 0 0 0 0 0 0 0 0 0 0 0 0 0 0 0 0 0 0 0 0 0 0 0 0 0 0 0 0 0 0 0 0 0 0 0 0 0 0 0
0 0 0 0 0 0 0 0 0 0 0 0 0 0 0 0 0 0 0 0 0 0 0 0 0 0 0 0 0 0 0 0 0 0 0 0 0 0 0 0 0 0 0
0 0 0 0 0 0 0 0 0 0 0 0 0 0 0 0 0 0 0 0 0 0 0 0 0 0 0 0 0 0 0 0 0 0 0 0 0 0 0 0 0 0 0
0 0 0 0 0 0 0 0 0 0 0 0 0 0 0 0 0 0 0 0 0 0 0 0 0 0 0 0 0 0 0 0 0 0 0 0 0 0 0 0 0 0 0
0 0 0 0 0 0 0 0 0 0 0 0 0 0 0 0 0 0 0 0 0 0 0 0 0 0 0 0 0 0 0 0 0 0 0 0 0 0 0 0 0 0 0
0 0 0 0 0 0 0 0 0 0 0 0 0 0 0 0 0 0 0 0 0 0 0 0 0 0 0 0 0 0 0 0 0 0 0 0 0 0 0 0 0 0 0
Wind_Speed
4 5 5 6 6 7 7 9 9 10 11 11 12 13 13 14 14 13 14 15 16 16 15 16 18 17 14 13 13 13 14 14 18 19 14 14 17 16 14 14 15 15 14
4 5 6 7 7 8 9 10 10 11 11 12 13 14 14 14 14 15 16 16 16 17 17 17 18 14 17 15 13 15 14 15 16 21 17 14 17 16 15 16 14 13 14
5 6 7 8 9 10 11 11 12 12 13 13 13 14 14 14 15 15 16 16 17 17 17 17 18 17 18 15 15 15 13 13 14 17 18 14 13 12 14 14 16 15 15
6 7 9 9 10 11 12 12 13 13 14 14 15 15 15 14 14 15 15 16 16 17 17 17 17 17 17 17 15 16 14 14 14 15 16 14 12 12 11 12 13 13 13
8 9 9 10 11 11 12 13 14 14 14 15 15 16 15 13 12 12 13 15 16 17 17 17 17 20 23 20 15 14 13 13 13 13 14 13 12 11 11 11 13 12 13
9 10 10 11 11 12 13 14 15 15 15 15 16 16 16 13 18 22 20 17 16 16 16 16 17 19 22 26 28 27 23 16 15 14 14 15 15 14 12 11 11 12 11
9 10 11 11 12 13 14 15 15 16 16 16 16 16 17 17 22 24 24 19 18 17 16 15 14 14 19 15 20 25 25 27 26 18 17 17 16 14 13 14 13 13 14
10 11 11 11 13 14 15 16 16 15 15 15 16 17 17 18 22 24 24 19 17 17 16 16 16 16 15 16 13 14 16 17 19 16 14 14 14 12 11 13 13 13 13
10 11 12 12 14 15 16 16 16 15 16 16 16 17 18 18 21 22 23 15 14 16 15 15 16 16 20 24 17 15 16 14 19 25 26 23 25 25 18 11 11 10 11
11 12 13 13 14 15 16 17 15 15 15 15 16 16 17 18 20 22 23 12 13 13 13 13 18 20 22 23 16 14 15 14 12 13 16 18 17 17 21 14 10 11 9
12 13 13 14 14 15 15 15 15 15 15 15 16 15 16 17 19 21 21 13 12 13 12 11 11 20 23 24 22 15 17 17 12 12 10 10 9 9 10 9 8 9 9
13 14 14 15 13 12 15 15 15 15 15 15 15 15 12 13 15 17 22 21 20 15 13 11 12 21 24 25 20 19 23 20 10 9 9 8 7 8 7 8 9 9 9
14 14 15 15 14 13 14 15 14 13 12 12 12 13 12 11 13 20 22 22 23 16 13 19 23 25 23 17 18 21 17 10 8 8 9 8 7 6 6 6 7 8 9
14 15 14 14 14 14 11 11 11 11 12 12 12 13 13 12 12 11 11 13 16 15 13 16 22 22 17 16 16 12 8 8 8 8 8 7 6 5 6 6 6 6 7
14 14 14 13 13 13 12 11 13 12 13 15 13 13 13 13 15 22 19 13 12 13 14 11 9 8 8 8 8 8 7 7 8 7 7 6 6 6 6 5 5 6 7
13 13 11 11 11 11 12 13 14 17 22 24 24 22 17 20 25 26 26 25 25 23 17 10 9 8 8 8 8 7 7 7 6 6 6 6 6 5 5 5 6 7 8
13 13 11 11 11 12 12 13 14 14 18 21 22 23 22 24 25 25 24 23 22 20 11 9 9 8 8 8 7 7 7 7 6 6 6 6 6 6 6 6 6 7 7
13 13 13 11 11 12 12 12 13 14 14 13 15 19 21 22 23 23 23 19 12 10 8 8 8 8 8 8 7 7 7 6 6 6 6 6 6 6 6 6 6 7 7
12 10 10 11 11 12 12 12 12 14 14 13 13 13 17 19 21 20 17 10 10 9 8 8 8 8 8 7 7 7 7 7 6 6 6 6 6 6 6 6 6 9 8
11 15 15 12 12 12 12 12 12 13 13 13 12 12 12 13 11 11 9 9 9 9 9 9 8 8 8 7 7 7 7 7 7 6 6 6 6 6 6 7 6 6 7
11 12 16 13 11 11 12 12 12 12 12 12 12 14 19 13 11 12 10 9 9 9 9 9 8 8 8 7 7 7 8 7 6 6 6 6 5 5 5 6 6 6 6
10 11 11 11 11 11 12 12 12 12 13 14 12 13 19 12 10 10 9 9 9 8 8 8 8 8 7 7 7 7 7 7 7 6 6 6 5 6 6 6 6 6 6
11 12 12 12 12 15 14 12 12 12 13 13 13 12 11 10 10 10 10 9 9 8 8 8 8 8 7 7 7 7 7 7 6 6 6 6 6 6 6 7 8 8 8
12 12 13 12 12 12 12 13 12 12 13 13 12 12 11 11 11 11 10 9 9 9 8 8 8 10 12 9 7 7 7 7 7 6 8 7 7 6 6 7 8 9 8
11 12 12 12 12 12 12 13 13 13 12 12 12 11 11 11 11 11 10 9 10 10 10 10 8 8 10 11 10 9 11 13 12 8 6 7 8 8 8 8 8 8 8
12 12 12 11 11 12 12 12 13 13 12 12 11 11 11 11 11 11 10 9 9 9 9 8 9 11 12 10 11 13 15 15 14 14 9 7 8 8 8 8 9 9 9
Wind_Direction
355 338 326 325 320 312 305 304 304 301 299 295 294 291 288 286 284 278 273 272 271 270 267 265 263 262 260 257 253 251 249 249 260 270 267 266 261 255 253 253 255 254 252
340 327 323 320 316 311 309 308 305 301 299 297 294 291 289 287 285 282 280 277 275 274 273 270 268 266 262 260 257 255 253 250 254 267 270 267 263 259 255 255 254 254 253
326 318 316 314 313 311 309 308 305 301 298 296 293 290 288 287 285 283 282 280 278 276 275 273 271 269 266 263 260 258 257 255 253 260 268 267 264 259 256 253 253 254 255
316 312 311 311 310 307 305 303 301 299 296 295 293 290 288 285 282 281 281 280 278 276 274 271 269 267 265 265 264 262 260 258 256 258 264 265 261 256 249 249 251 246 249
309 308 307 307 306 303 301 300 300 298 295 293 291 289 287 284 278 276 275 274 274 274 272 270 267 265 264 264 261 259 256 255 255 256 259 262 257 250 243 241 247 251 250
303 302 304 304 303 302 301 301 299 297 295 294 292 291 289 285 285 286 285 282 278 275 274 272 271 269 268 268 267 265 259 254 251 251 255 255 256 251 246 240 240 243 248
298 299 302 302 301 301 302 300 299 298 297 295 293 292 290 289 290 290 289 288 285 282 278 276 274 271 272 268 270 271 272 270 265 259 257 256 258 252 246 241 235 235 240
296 298 300 301 301 302 302 301 301 300 298 296 295 294 293 292 294 294 295 292 286 283 280 277 277 276 273 272 266 264 264 265 267 267 261 262 261 258 247 243 243 242 244
294 298 303 303 302 302 302 302 303 301 299 297 297 296 295 295 295 297 297 293 286 285 282 279 278 278 277 279 275 268 267 265 265 264 261 262 260 257 248 238 231 231 236
302 303 303 302 301 300 301 302 301 300 298 298 295 295 294 294 296 298 298 292 290 289 285 280 278 277 279 280 276 273 272 272 268 266 263 264 264 264 261 244 226 228 229
303 300 299 299 299 300 300 299 300 299 298 297 296 295 294 293 295 296 296 294 290 290 288 285 280 281 282 282 281 276 273 276 272 266 263 257 251 247 247 238 224 224 226
302 299 298 299 300 298 298 299 300 300 299 299 298 299 297 296 295 296 297 297 297 294 291 288 285 287 287 287 285 281 282 284 276 270 264 257 249 245 238 229 222 222 224
301 299 299 300 299 298 298 299 300 299 297 298 298 298 298 297 297 298 299 300 298 295 288 288 291 293 294 291 287 288 288 281 273 269 266 261 251 243 234 228 221 218 221
299 299 300 300 299 299 296 294 294 295 296 296 296 297 298 299 299 300 300 300 298 295 291 290 291 289 285 284 286 285 276 269 268 267 267 264 257 243 233 226 222 213 219
298 298 298 297 297 298 295 292 292 288 287 292 294 295 297 298 298 302 304 302 300 296 300 293 288 286 284 283 282 279 274 272 270 265 263 262 252 240 234 223 220 214 218
296 298 298 298 297 296 297 296 285 283 290 291 289 290 291 291 299 303 306 307 307 306 305 296 294 292 293 292 291 286 279 275 272 268 263 259 254 245 238 224 218 222 226
292 294 295 294 294 296 297 298 299 298 293 293 292 294 294 298 302 304 306 308 307 308 300 294 293 293 292 291 288 285 282 279 275 267 262 260 255 248 241 232 223 225 227
290 290 289 290 292 293 294 294 296 300 303 300 298 297 298 300 303 305 306 308 303 301 293 294 294 293 290 288 286 284 283 280 272 267 262 258 254 249 243 236 228 227 228
290 288 289 290 291 291 292 293 293 294 295 297 299 299 301 305 305 303 305 299 298 297 296 293 291 289 288 285 283 280 279 277 274 269 262 256 251 249 244 238 234 230 229
287 287 290 291 291 291 292 292 293 293 294 295 297 300 305 305 302 303 303 299 294 293 294 293 292 289 287 284 282 279 276 273 270 265 263 257 251 247 244 240 236 233 229
290 291 291 290 287 289 291 291 292 291 292 294 294 296 299 300 298 298 298 296 294 294 294 293 291 289 285 283 280 278 277 274 270 266 263 258 251 246 243 241 237 235 235
289 288 289 289 289 290 291 291 291 291 292 293 294 296 299 297 293 292 294 294 292 289 290 289 287 284 282 282 280 279 276 274 272 268 263 257 250 246 242 238 236 235 232
288 288 289 289 291 292 293 291 291 291 291 292 293 294 295 294 292 293 293 292 290 289 287 284 282 281 281 279 276 274 273 274 273 271 267 261 253 246 242 239 236 235 234
288 288 291 293 293 292 292 292 292 292 292 292 292 292 292 293 292 292 291 289 288 287 285 282 279 280 282 282 278 273 271 273 275 268 260 260 257 251 244 240 239 236 236
288 290 291 292 292 292 292 292 292 292 292 292 291 291 291 291 291 291 290 288 288 286 286 284 280 280 281 281 280 277 276 275 273 269 258 254 253 250 247 244 241 240 237
291 291 292 291 290 290 291 291 292 293 292 292 290 290 291 290 290 291 290 287 287 287 286 283 280 281 282 281 278 277 278 277 273 266 258 253 249 247 243 243 242 241 239